Regional Weather Roundup
Issued by NWS

Home | Current Version | Previous Version | Text Only | Print | Product List | Glossary On
Versions: 1 2 3 4 5 6 7 8 9 10 11 12 13 14 15 16 17 18 19 20 21 22 23 24 25 26 27 28 29 30 31 32 33 34 35 36 37 38 39 40 41 42 43 44 45 46 47 48 49 50
521
ASUS44 KLIX 191510
RWRLA
LOUISIANA WEATHER ROUNDUP
NATIONAL WEATHER SERVICE NEW ORLEANS LA
1000 AM CDT FRI SEP 19 2014

NOTE: "FAIR" INDICATES FEW OR NO CLOUDS BELOW 12,000 FEET WITH NO
      SIGNIFICANT WEATHER AND/OR OBSTRUCTIONS TO VISIBILITY.
      SKY/WX - SKY CONDITION AND SIGNIFICANT WEATHER.
      TMP - AIR TEMPERATURE.    DP   - DEWPOINT TEMPERATURE.
      RH  - RELATIVE HUMIDITY.  PRES - PRESSURE.
      HX  - HEAT INDEX.         WCI  - WIND CHILL INDEX.

*  THESE STATIONS ARE NOT NWS OR FAA STATIONS AND ARE NOT UNDER
   NWS QUALITY CONTROL.

LAZ040-048-061>063-065-066-069-191600-
SOUTHEAST LOUISIANA

CITY           SKY/WX    TMP DP  RH WIND       PRES   REMARKS
N.O. AUDUBON     N/A     82  70  67 MISG        N/A
N.O. INTL ARPT PTSUNNY   82  68  62 VRB7      29.96R
N.O. LAKEFRONT MOSUNNY   81  69  67 E14       29.97R
N.O. DOWNTOWN* FAIR      81  66  61 E6        29.97R
SLIDELL        PTSUNNY   77  70  79 N6        29.97R
BATON ROUGE    MOSUNNY   80  71  74 E8        29.97S
BOOTHVILLE     CLOUDY    78  71  79 E12       29.95R
BELLE CHASSE   PTSUNNY   81  69  67 E10       29.96R
BOGALUSA*        N/A     82  69  64 SE3       30.00S
GALLIANO*      NOT AVBL
NEW ROADS*     FAIR      79  71  76 E9        29.97S
GONZALES*      FAIR      80  75  86 E6        29.96R
HAMMOND*       MOSUNNY   82  70  65 E6        29.99S
HOUMA*         MOSUNNY   81  61  50 E6        29.95R
PORT FOURCHON* PTSUNNY   81  73  78 E10G20    29.96S

$$

LAZ041-044-053-054-191600-
SOUTHWEST LOUISIANA

CITY           SKY/WX    TMP DP  RH WIND       PRES   REMARKS
LAKE CHARLES   PTSUNNY   78  73  84 E6        29.95R
LAFAYETTE      PTSUNNY   78  73  84 VRB7      29.96S
PATTERSON      PTSUNNY   81  73  78 E10       29.98R
SALT POINT       N/A     81  74  79 E8        29.94R
NEW IBERIA     PTSUNNY   79  72  79 E14       29.97R
CHENAULT AIRPK PTSUNNY   79  73  83 E9        29.95R

$$

LAZ027-028-191600-
CENTRAL LOUISIANA

CITY           SKY/WX    TMP DP  RH WIND       PRES   REMARKS
FORT POLK      CLOUDY    78  70  76 E6        29.97R
ALEXANDRIA INT SUNNY     79  71  76 SE7       29.95S
ALEXANDRIA     CLOUDY    79  72  79 E7        29.98R

$$

LAZ001-002-191600-
NORTHWEST LOUISIANA

CITY           SKY/WX    TMP DP  RH WIND       PRES   REMARKS
SHREVEPORT     CLOUDY    77  73  87 E5        29.97R
BARKSDALE AFB  NOT AVBL
DTN SHREVEPORT CLOUDY    74  32  21 NE3       29.98R HAZE

$$

LAZ014-016-191600-
NORTHEAST LOUISIANA

CITY           SKY/WX    TMP DP  RH WIND       PRES   REMARKS
MONROE         SUNNY     78  69  73 VRB3      30.00S
TALLULAH       SUNNY     79  67  66 E6        30.01R

$$




USA.gov is the U.S. government's official web portal to all federal, state and local government web resources and services.